EW9826 Weather Reports


time (UTC)temp
C
wind
direction
speed
KPH
gust
KPH
rain 1hr
cm
rain 24hr
cm
rain mn
cm
humidity
%
barometer
mb
20260906082606 18 166 8.0 16.1 0.00 0.00 0.00 70 1026.1
20260906082104 18 186 4.8 12.9 0.00 0.00 0.00 73 1026.1
20260906081604 18 183 4.8 14.5 0.00 0.00 0.00 72 1026.1
20260906081104 17 160 4.8 19.3 0.00 0.00 0.00 73 1026.1
20260906065603 16 196 1.6 4.8 0.00 0.00 0.00 82 1026.2
20260906065104 16 196 3.2 9.7 0.00 0.00 0.00 83 1026.2
20260906064104 15 195 3.2 8.0 0.00 0.00 0.00 83 1026.1
20260906063604 15 197 3.2 8.0 0.00 0.00 0.00 83 1026.1
20260906063105 15 197 4.8 8.0 0.00 0.00 0.00 84 1026.1
20260906062603 15 198 1.6 8.0 0.00 0.00 0.00 85 1026.1
20260906062104 15 199 3.2 4.8 0.00 0.00 0.00 85 1026.1
20260906060103 14 200 3.2 4.8 0.00 0.00 0.00 88 1025.9
20260906055606 14 200 3.2 4.8 0.00 0.00 0.00 88 1025.9
20260906055105 13 200 3.2 4.8 0.00 0.00 0.00 89 1025.8
20260906054603 13 200 3.2 4.8 0.00 0.00 0.00 89 1025.8
20260906054104 13 200 1.6 4.8 0.00 0.00 0.00 89 1025.9
20260906051604 13 200 3.2 4.8 0.00 0.00 0.00 88 1025.8
20260906051105 13 200 3.2 4.8 0.00 0.00 0.00 88 1025.8
20260906044104 13 200 3.2 4.8 0.00 0.00 0.00 87 1025.6
20260906043604 13 200 3.2 4.8 0.00 0.00 0.00 87 1025.6
20260906043104 13 200 1.6 4.8 0.00 0.00 0.00 87 1025.6
20260906042603 13 200 3.2 4.8 0.00 0.00 0.00 87 1025.9
20260906035603 13 201 3.2 4.8 0.00 0.00 0.00 87 1025.9
20260906035104 13 201 3.2 4.8 0.00 0.00 0.00 87 1026.1
20260906034603 13 201 4.8 8.0 0.00 0.00 0.00 88 1026.1
20260906034104 13 301 3.2 8.0 0.00 0.00 0.00 88 1026.1
20260906032103 13 303 0.0 1.6 0.00 0.00 0.00 88 1026.1
20260906031603 13 303 0.0 4.8 0.00 0.00 0.00 88 1026.1
20260906031103 13 303 1.6 4.8 0.00 0.00 0.00 88 1026.2
20260906025603 13 303 1.6 4.8 0.00 0.00 0.00 88 1026.2
20260906025103 13 303 1.6 3.2 0.00 0.00 0.00 88 1026.2
20260906024603 13 303 0.0 4.8 0.00 0.00 0.00 88 1026.2
20260906024103 13 303 1.6 4.8 0.00 0.00 0.00 88 1026.5
20260906022104 13 303 1.6 4.8 0.00 0.00 0.00 89 1026.7
20260906021603 13 303 0.0 4.8 0.00 0.00 0.00 89 1026.7
20260906015603 13 303 0.0 0.0 0.00 0.00 0.00 89 1026.7
20260906015104 13 303 0.0 0.0 0.00 0.00 0.00 89 1026.7
20260906014603 13 303 0.0 0.0 0.00 0.00 0.00 89 1026.7
20260906014104 13 303 0.0 0.0 0.00 0.00 0.00 89 1026.6
20260906013603 13 303 0.0 0.0 0.00 0.00 0.00 88 1026.6
20260906013104 13 303 0.0 3.2 0.00 0.00 0.00 88 1026.5
20260906012603 13 303 0.0 3.2 0.00 0.00 0.00 89 1026.6
20260906005603 13 303 1.6 3.2 0.00 0.00 0.00 89 1026.7
20260906003104 14 303 0.0 0.0 0.00 0.00 0.00 89 1026.6
20260906002603 14 303 0.0 0.0 0.00 0.00 0.00 89 1026.6
20260906001104 14 303 0.0 3.2 0.00 0.00 0.00 88 1026.6
20260905233104 14 303 0.0 3.2 0.00 0.00 0.00 88 1026.5
20260905232603 14 303 0.0 1.6 0.00 0.00 0.00 88 1026.5
20260905231104 14 303 1.6 3.2 0.00 0.00 0.00 88 1026.6
20260905221602 14 303 0.0 1.6 0.00 0.00 0.00 87 1026.2
20260905221104 14 303 0.0 3.2 0.00 0.00 0.00 87 1026.1
20260905213602 14 303 0.0 0.0 0.00 0.00 0.00 87 1026.0
20260905213103 14 303 0.0 0.0 0.00 0.00 0.00 86 1026.1
20260905212602 15 303 0.0 0.0 0.00 0.00 0.00 86 1026.1
20260905212103 15 303 0.0 0.0 0.00 0.00 0.00 86 1026.1
20260905204602 15 303 0.0 0.0 0.00 0.00 0.00 84 1025.9
20260905204103 15 303 0.0 0.0 0.00 0.00 0.00 84 1025.9
20260905203103 15 303 0.0 0.0 0.00 0.00 0.00 84 1026.0
20260905202603 15 303 0.0 0.0 0.00 0.00 0.00 84 1026.0
20260905202103 15 303 0.0 0.0 0.00 0.00 0.00 83 1025.9
20260905195602 16 303 0.0 0.0 0.00 0.00 0.00 81 1025.7
20260905193603 16 303 0.0 0.0 0.00 0.00 0.00 79 1025.6
20260905193103 16 303 0.0 0.0 0.00 0.00 0.00 78 1025.6
20260905191602 17 303 0.0 0.0 0.00 0.00 0.00 76 1025.6
20260905191104 17 303 0.0 1.6 0.00 0.00 0.00 76 1025.5
20260905185602 17 303 0.0 1.6 0.00 0.00 0.00 74 1025.5
20260905185103 17 303 1.6 1.6 0.00 0.00 0.00 73 1025.5
20260905184603 17 303 0.0 3.2 0.00 0.00 0.00 73 1025.4
20260905184102 17 303 1.6 4.8 0.00 0.00 0.00 73 1025.4
20260905183602 17 303 3.2 4.8 0.00 0.00 0.00 73 1025.3
20260905183103 18 303 1.6 4.8 0.00 0.00 0.00 73 1025.3
20260905182602 18 303 1.6 4.8 0.00 0.00 0.00 72 1025.4
20260905182103 18 303 1.6 4.8 0.00 0.00 0.00 72 1025.1
20260905181602 18 303 0.0 0.0 0.00 0.00 0.00 72 1025.2
20260905181104 18 303 0.0 4.8 0.00 0.00 0.00 72 1025.2
20260905173103 18 303 6.4 11.3 0.00 0.00 0.00 69 1025.1
20260905165102 18 310 9.7 19.3 0.00 0.00 0.00 69 1025.1
20260905164602 18 312 6.4 11.3 0.00 0.00 0.00 69 1024.8
20260905164102 18 315 8.0 12.9 0.00 0.00 0.00 69 1024.8
20260905162103 18 310 9.7 20.9 0.00 0.00 0.00 67 1024.7
20260905161601 18 314 9.7 19.3 0.00 0.00 0.00 66 1024.6
20260905161102 18 291 8.0 25.7 0.00 0.00 0.00 66 1024.6
20260905155602 19 291 8.0 19.3 0.00 0.00 0.00 67 1024.5
20260905155103 18 285 9.7 19.3 0.00 0.00 0.00 68 1024.4
20260905154602 18 269 6.4 14.5 0.00 0.00 0.00 68 1024.3
20260905154102 18 296 8.0 16.1 0.00 0.00 0.00 68 1024.2
20260905153602 18 303 6.4 11.3 0.00 0.00 0.00 68 1024.1
20260905153102 18 307 9.7 20.9 0.00 0.00 0.00 68 1024.1
20260905152601 18 306 11.3 22.5 0.00 0.00 0.00 67 1024.1
20260905151602 18 292 11.3 20.9 0.00 0.00 0.00 67 1024.0
20260905151102 18 300 11.3 25.7 0.00 0.00 0.00 66 1024.0
20260905145601 18 304 12.9 22.5 0.00 0.00 0.00 67 1024.0
20260905145103 18 303 14.5 29.0 0.00 0.00 0.00 67 1023.9
20260905144601 18 310 11.3 19.3 0.00 0.00 0.00 67 1023.9
20260905144102 18 299 14.5 20.9 0.00 0.00 0.00 67 1023.9
20260905143602 18 302 11.3 25.7 0.00 0.00 0.00 66 1023.8
20260905143102 18 318 14.5 24.1 0.00 0.00 0.00 67 1023.6
20260905142602 18 299 9.7 22.5 0.00 0.00 0.00 68 1023.6
20260905142102 18 322 11.3 29.0 0.00 0.00 0.00 67 1023.6
20260905141601 18 295 9.7 20.9 0.00 0.00 0.00 67 1023.6
20260905141103 18 305 11.3 22.5 0.00 0.00 0.00 66 1023.5
20260905135601 18 297 12.9 20.9 0.00 0.00 0.00 68 1023.5
20260905134103 19 290 11.3 24.1 0.00 0.00 0.00 67 1023.4
20260905132602 19 280 11.3 25.7 0.00 0.00 0.00 67 1023.1
20260905132102 19 298 11.3 32.2 0.00 0.00 0.00 65 1023.1
20260905131602 18 278 9.7 20.9 0.00 0.00 0.00 68 1023.1
20260905131102 18 276 14.5 29.0 0.00 0.00 0.00 69 1023.0
20260905123602 18 303 17.7 29.0 0.00 0.00 0.00 69 1022.7
20260905123103 18 289 11.3 22.5 0.00 0.00 0.00 70 1022.6
20260905122601 18 305 14.5 24.1 0.00 0.00 0.00 70 1022.7
20260905122102 18 299 16.1 25.7 0.00 0.00 0.00 69 1022.6
20260905121602 18 334 11.3 24.1 0.00 0.00 0.00 69 1022.5
20260905121103 18 304 16.1 25.7 0.00 0.00 0.00 69 1022.5
20260905115601 18 291 14.5 29.0 0.00 0.00 0.00 67 1022.5
20260905115102 18 302 14.5 27.4 0.00 0.00 0.00 67 1022.5
20260905114102 18 297 14.5 32.2 0.00 0.00 0.00 68 1022.5
20260905113601 18 283 14.5 35.4 0.00 0.03 0.00 68 1022.5
20260905112103 18 287 12.9 27.4 0.00 0.05 0.00 65 1022.1
20260905105102 18 304 14.5 25.7 0.00 0.13 0.00 68 1021.9
20260905104602 18 286 14.5 32.2 0.00 0.13 0.00 68 1021.9
20260905102102 19 288 14.5 29.0 0.00 0.28 0.00 67 1021.5
20260905101602 19 274 9.7 20.9 0.00 0.28 0.00 69 1021.4
20260905101103 18 299 14.5 32.2 0.00 0.28 0.00 70 1021.4
20260905092601 18 302 12.9 32.2 0.00 0.28 0.00 71 1020.8
20260905092102 18 289 11.3 24.1 0.00 0.28 0.00 71 1020.7
20260905090101 18 281 8.0 27.4 0.00 0.28 0.00 71 1020.5
20260905085601 18 296 14.5 25.7 0.00 0.28 0.00 71 1020.5
20260905085102 18 288 14.5 20.9 0.00 0.28 0.00 71 1020.5